This demonstration page uses our WeatherBlox Daily Observations layout. Learn more.

Left ArrowRight Arrow

Hourly Observations for January 28, 2022

Temp ( °F °C ) Dew Point ( °F °C ) Humidity (%) Winds ( mph kmh ) Pressure ( in mb ) Visibility ( mi km ) Precip ( " mm )
12:53 am 00:53 Mostly Clear 38 3.3 29 -1.7 70 70 N 8 13 30.42 1030 10 16 0.00 0.00
1:53 am 01:53 Mostly Clear 36 2.2 28 -2.2 73 73 NNW 9 15 30.43 1030 10 16 0.00 0.00
2:53 am 02:53 Clear 36 2.2 28 -2.2 73 73 NNW 7 11 30.45 1031 10 16 0.00 0.00
3:53 am 03:53 Clear 34 1.1 27 -2.8 76 76 NNW 7 11 30.45 1031 10 16 0.00 0.00
4:53 am 04:53 Clear 32 0 26 -3.3 79 79 NNW 7 11 30.47 1032 10 16 0.00 0.00
5:53 am 05:53 Clear 31 -0.6 26 -3.3 82 82 NNW 6 9 30.48 1032 10 16 0.00 0.00
6:53 am 06:53 Mostly Clear 32 0 27 -2.8 82 82 NW 9 15 30.51 1033 10 16 0.00 0.00
7:53 am 07:53 Sunny 33 0.6 26 -3.3 75 75 NNW 9 15 30.52 1034 8 13 0.00 0.00
8:53 am 08:53 Sunny 37 2.8 28 -2.2 70 70 NW 9 15 30.53 1034 9 14 0.00 0.00
9:53 am 09:53 Sunny 42 5.6 27 -2.8 55 55 NW 9 15 30.55 1034 10 16 0.00 0.00
10:53 am 10:53 Sunny 47 8.3 28 -2.2 48 48 NW 13 20 30.55 1034 10 16 0.00 0.00
11:53 am 11:53 Sunny 50 10 27 -2.8 41 41 NNW 16 26 30.54 1034 10 16 0.00 0.00
12:53 pm 12:53 Mostly Sunny 53 11.7 26 -3.3 35 35 NW 13 20 30.50 1033 10 16 0.00 0.00
1:53 pm 13:53 Mostly Sunny 56 13.3 23 -5 28 28 NNW 10 17 30.45 1031 10 16 0.00 0.00
2:53 pm 14:53 Mostly Sunny 57 13.9 20 -6.7 24 24 NNW 20 31 30.42 1030 10 16 0.00 0.00
3:53 pm 15:53 Mostly Sunny 56 13.3 20 -6.7 24 24 NW 15 24 30.41 1030 10 16 0.00 0.00
4:53 pm 16:53 Sunny 55 12.8 20 -6.7 25 25 NNW 14 22 30.40 1030 10 16 0.00 0.00
5:53 pm 17:53 Sunny 52 11.1 20 -6.7 28 28 NNW 8 13 30.41 1030 10 16 0.00 0.00
6:53 pm 18:53 Clear 47 8.3 21 -6.1 36 36 NW 8 13 30.43 1031 10 16 0.00 0.00
7:53 pm 19:53 Clear 47 8.3 22 -5.6 37 37 NW 7 11 30.44 1031 10 16 0.00 0.00
8:53 pm 20:53 Clear 48 8.9 23 -5 37 37 NNW 7 11 30.44 1031 10 16 0.00 0.00
9:53 pm 21:53 Clear 46 7.8 21 -6.1 37 37 NNW 6 9 30.44 1031 10 16 0.00 0.00
10:53 pm 22:53 Clear 42 5.6 21 -6.1 43 43 Calm 30.43 1031 10 16 0.00 0.00
11:53 pm 23:53 Clear 36 2.2 23 -5 59 59 Calm 30.42 1030 10 16 0.00 0.00

Powered by AerisWeather